Terminal Aerodrome Forecast
Issued by NWS

Home | Current Version | Previous Version | Text Only | Print | Product List | Glossary On
Versions: 1 2 3 4 5 6 7 8 9 10 11 12 13 14 15 16 17 18 19 20 21 22 23 24
000
FTAK31 PANC 291737
TAFAAQ
TAF
PAAQ 291737Z 2918/3018 01007KT P6SM BKN100
     FM292000 13009KT P6SM BKN100
     FM300100 15012G18KT P6SM VCSH SCT070 BKN100
     FM300700 13010KT P6SM BKN070=

USA.gov is the U.S. government's official web portal to all federal, state and local government web resources and services.